Regional Weather Roundup
Issued by NWS

Home | Current Version | Previous Version | Text Only | Print | Product List | Glossary Off
Versions: 1 2 3 4 5 6 7 8 9 10 11 12 13 14 15 16 17 18 19 20 21 22 23 24 25 26 27 28 29 30 31 32 33 34 35 36 37 38 39 40 41 42 43 44 45 46 47 48 49 50

000
ASUS43 KFSD 222102
RWRSD

WEATHER ROUNDUP FOR SOUTH DAKOTA
NATIONAL WEATHER SERVICE SIOUX FALLS SD
400 PM CDT SAT APR 22 2017

NOTE: "FAIR" INDICATES FEW OR NO CLOUDS BELOW 12,000 FEET WITH NO
SIGNIFICANT WEATHER AND/OR OBSTRUCTIONS TO VISIBILITY.


SDZ001>005-009-010-012>017-222200-
NORTHWEST AND NORTH CENTRAL SOUTH DAKOTA

CITY           SKY/WX    TMP DP  RH WIND       PRES   REMARKS
BUFFALO          N/A     61  36  39 MISG      30.08F
FAITH            N/A     63  37  38 NW9       30.15F
MOBRIDGE       SUNNY     70  35  27 SW14      30.11F
$$

SDZ012>016-024>037-041>051-057-063-072>074-222200-
SOUTHWEST AND SOUTH CENTRAL SOUTH DAKOTA

CITY           SKY/WX    TMP DP  RH WIND       PRES   REMARKS
RAPID CTY ARPT SUNNY     65  36  34 S20G26    30.16F
PIERRE         SUNNY     66  34  30 SW12G22   30.16F
CUSTER         MOSUNNY   53  31  42 SW12G20   30.21F
PHILIP         SUNNY     66  37  34 W9G21     30.17F
PINE RIDGE     SUNNY     64  33  31 SW9G20    30.19F
SPEARFISH      FAIR      57  39  51 E6G13     30.18F
WINNER         FAIR      66  35  31 S10       30.20F
$$

SDZ004>011-016>023-039-040-222200-
NORTHEAST SOUTH DAKOTA

CITY           SKY/WX    TMP DP  RH WIND       PRES   REMARKS
ABERDEEN       SUNNY     69  31  24 W15G28    30.15F
WATERTOWN      SUNNY     64  36  35 W10       30.18F
BROOKINGS      SUNNY     64  35  34 W15       30.19F
SISSETON         N/A     69  38  32 NW15      30.13F
$$

SDZ017-020-022-023-036>040-048>070-222200-
SOUTHEAST SOUTH DAKOTA

CITY           SKY/WX    TMP DP  RH WIND       PRES   REMARKS
SIOUX FALLS    MOSUNNY   67  39  35 VRB6      30.19F
HURON          SUNNY     68  37  32 W10       30.18F
CHAMBERLAIN    SUNNY     67  39  35 SW7       30.20F
MITCHELL       SUNNY     66  37  34 W9        30.20F
YANKTON        SUNNY     63  36  36 CALM      30.20F
$$

ABBREVIATIONS USED IN REMARKS
   TC - TEMPERATURE IN CELSIUS
  WCI - WIND CHILL INDEX
   HX - HEAT INDEX
  VSB - VISIBILITY





USA.gov is the U.S. government's official web portal to all federal, state and local government web resources and services.